Location: Châteaugiron
(48.0463°N, 1.5044°W)
Time: 20:11:24
(UTC+00:00)

Daily predictions for brighter satellites

Satellite Brightness Start Highest point End
(mag) Time Altitude Azimuth Time Altitude Azimuth Time Altitude Azimuth
FALCON 9 R/B 4.4 18:43:26 10° S 18:45:29 11° SSE 18:48:19 10° SE
USA 229 4.5 18:43:58 10° WSW 18:50:08 52° NW 18:56:54 10° NE
COSMO-SKYMED 1 3.6 18:46:09 10° N 18:50:24 53° WNW 18:54:38 10° SSW
Cosmos 1707 2.7 18:49:46 10° N 18:53:31 57° ENE 18:57:15 10° SSE
CZ-4B R/B 3.3 18:48:23 10° SSE 18:54:01 73° ENE 18:59:40 10° NNW
Cosmos 2322 3.7 18:48:32 10° NNW 18:54:11 68° ENE 18:59:49 10° SE
Okean 1-7 3.1 18:50:40 10° N 18:55:00 56° ENE 18:59:16 10° SSE
Cosmos 1727 Rocket 4.0 18:48:54 10° S 18:55:12 76° E 19:01:28 10° NNE
Cosmos 1954 Rocket 4.0 18:50:13 10° NNW 18:55:28 74° ENE 19:00:44 10° SSE
Lacrosse 5 rocket 3.3 18:55:51 10° SE 18:57:09 11° ESE 18:58:27 10° ESE
Cosmos 1674 2.8 18:54:16 10° N 18:57:54 51° ENE 19:01:33 10° SSE
Cosmos 2219 Rocket 2.3 18:55:07 10° NNW 19:00:51 88° WSW 19:06:33 10° SSE
Cosmos 1933 Rocket 3.7 18:58:12 10° S 19:02:22 50° E 19:06:35 10° NNE
Cosmos 1975 3.3 18:58:49 10° SSE 19:02:29 37° E 19:06:11 10° NNE
Cosmos 2333 Rocket 2.9 18:57:08 10° NW 19:02:49 60° WSW 19:08:27 10° S
SJ-6B 3.3 18:59:48 10° SE 19:03:27 39° ENE 19:07:03 10° N
CZ-4C R/B 4.1 19:01:38 10° N 19:05:20 56° WNW 19:09:13 10° SSW
USA 308 4.4 19:02:28 10° WNW 19:05:43 28° SW 19:08:57 10° SSE
Meteor 2-9 Rocket 4.1 19:00:56 10° S 19:06:26 83° E 19:11:51 10° NNE
Cosmos 1726 3.4 19:05:06 10° SE 19:07:37 19° E 19:10:10 10° NE
MOS 1-B 4.5 19:03:28 10° SSE 19:09:16 85° WSW 19:15:07 10° NNW
USA 267 3.9 19:04:45 10° SSE 19:11:10 54° SW 19:17:37 10° WNW
BREEZE-M DEB (TANK) 3.5 19:06:31 10° WNW 19:11:12 34° SW 19:13:32 10° SSE
Cosmos 2061 Rocket 4.5 19:05:51 10° N 19:11:58 43° ENE 19:18:02 10° SE
Cosmos 1869 Rocket 4.2 19:08:11 10° SSE 19:12:03 33° E 19:15:57 10° NNE
Cosmos 1900 4.4 19:07:33 10° SSW 19:12:22 55° ESE 19:17:11 10° NE
COSMOS 2428 2.7 19:08:12 10° NNW 19:13:57 73° ENE 19:19:41 10° SE
SL-14 R/B 4.2 19:13:03 10° NNE 19:16:24 27° ENE 19:19:24 12° SE
Cosmos 1459 Rocket 3.9 19:13:14 10° N 19:19:19 82° E 19:25:23 10° S
Cosmos 2297 Rocket 3.2 19:15:56 10° SSE 19:20:09 22° E 19:24:24 10° NE
NOSS 3-2 (A) 4.1 19:13:55 10° NW 19:21:19 81° NE 19:29:58 10° SE
USA 281 3.5 19:15:02 10° NNE 19:21:36 76° WNW 19:28:08 10° SW
Cosmos 1867 4.2 19:18:41 10° S 19:23:26 32° ESE 19:28:12 10° NE
IGS 5A 3.5 19:22:22 10° SSE 19:26:29 83° WSW 19:30:39 10° NNW
Resurs 01 Rocket 2.6 19:25:55 15° ESE 19:28:40 28° ENE 19:32:25 10° N
Cosmos 1725 Rocket 4.0 19:23:01 10° N 19:29:10 63° ENE 19:35:17 10° SSE
Cosmos 1371 Rocket 4.5 19:24:39 10° SSW 19:29:54 67° WNW 19:35:08 10° NNE
MINOTAUR 4 R/B 4.0 19:26:42 10° NNE 19:30:08 83° WNW 19:33:33 10° SSW
CZ-4C R/B 4.1 19:25:20 10° NW 19:30:46 27° NNE 19:36:50 11° ENE
JB-3 4.5 19:26:56 10° N 19:30:59 83° WNW 19:35:04 10° SSW
NOSS 3-2 (C) 4.2 19:24:35 10° NW 19:31:48 61° NE 19:38:47 16° ESE
CENTAUR R/B 3.3 19:23:39 10° NW 19:31:51 88° SW 19:40:57 10° SE
Cosmos 1733 3.3 19:28:29 10° S 19:32:07 49° E 19:35:47 10° NNE
Cosmos 2360 Rocket 4.5 19:28:01 10° NW 19:32:35 25° WSW 19:37:07 10° SSW
Cosmos 1626 3.2 19:29:24 10° NNW 19:32:50 45° W 19:36:15 10° SSW
Landsat 7 3.7 19:28:42 10° SSE 19:33:23 71° ENE 19:38:05 10° N
Cosmos 1818 4.2 19:29:52 10° NW 19:35:13 57° WSW 19:40:31 10° SSE
Cosmos 2227 Rocket 3.5 19:35:03 17° ESE 19:36:04 18° E 19:39:48 10° ENE
Cosmos 1703 Rocket 4.0 19:32:52 10° NNW 19:37:18 65° W 19:41:40 10° S
CZ-4 R/B 2.3 19:33:46 10° S 19:37:28 48° W 19:41:15 10° NNW
Cosmos 2056 Rocket 4.1 19:33:16 10° SW 19:38:19 60° WNW 19:43:24 10° NNE
Cosmos 192 4.3 19:37:04 10° S 19:41:56 61° ESE 19:46:50 10° NNE
Cosmos 2098 Rocket 3.7 19:36:56 10° S 19:42:16 77° E 19:48:45 10° NNE
Iridium 4 Rocket 2.9 19:38:48 10° N 19:42:58 66° E 19:47:06 10° SSE
Geosat 4.2 19:40:50 18° SE 19:44:22 54° NE 19:49:17 10° NNW
USA 238 DEB 4.1 19:38:18 10° NW 19:45:27 59° NE 19:50:50 21° ESE
USA 238 4.1 19:38:24 10° NW 19:45:33 59° NE 19:50:55 21° ESE
Cosmos 1802 Rocket 4.1 19:39:23 10° N 19:45:40 82° W 19:52:00 10° S
Resurs 1-3 3.5 19:41:29 10° SSE 19:45:51 83° ENE 19:50:14 10° NNW
SL-16 R/B 3.5 19:42:34 10° N 19:47:08 24° NE 19:49:39 18° E
Cosmos 1850 Rocket 4.0 19:47:41 10° NNW 19:53:03 79° ENE 19:57:17 17° SSE
Meteor 2-10 3.8 19:48:25 10° S 19:53:25 74° E 19:58:31 10° NNE
Cosmos 1733 Rocket 3.7 19:53:01 27° ESE 19:54:15 33° E 19:58:07 10° NNE
Okean-O 2.5 19:52:20 14° SSE 19:56:06 76° ENE 20:00:32 10° N
Okean 2 3.3 19:54:32 10° N 19:58:38 87° W 20:02:15 13° S
Cosmos 2016 Rocket 4.1 19:52:51 10° NNW 19:58:58 78° W 20:05:05 10° S
CARTOSAT-1 4.3 19:58:45 30° E 19:59:44 34° ENE 20:03:39 10° N
SPOT 1/Viking Rocket 3.5 19:55:57 18° SSE 19:59:51 65° ENE 20:05:02 10° N
NOSS 0 Rocket 4.0 19:53:43 10° NNW 19:59:57 82° WSW 20:05:06 15° SSE
Cosmos 1110 Rocket 4.0 19:55:46 10° S 20:00:50 55° ESE 20:05:54 10° NNE
SPOT 5 4.2 20:02:23 20° ENE 20:02:49 20° ENE 20:06:20 10° NNE
Cosmos 2123 Rocket 4.1 19:56:32 10° SSW 20:02:50 81° W 20:09:13 10° N
Cosmos 1378 Rocket 4.3 19:59:32 10° N 20:03:32 32° ENE 20:04:03 31° E
Okean O Rocket 3.3 20:00:29 10° SSW 20:04:30 34° W 20:08:32 10° NNW
Cosmos 2221 Rocket 4.1 20:00:29 10° N 20:04:38 38° ENE 20:05:26 35° E
SL-4 R/B 4.5 20:02:02 10° S 20:02:30 12° S 20:02:30 12° S
Helios 1B 4.4 20:02:25 10° NNE 20:06:48 81° ESE 20:11:07 10° SSW
Cosmos 2242 Rocket 4.3 20:02:50 10° NNW 20:07:20 56° W 20:11:47 10° S
BREEZE-M DEB (TANK) 2.8 20:01:28 10° W 20:07:31 75° N 20:08:22 45° E
ISS -2.9 20:04:29 10° WNW 20:07:42 42° N 20:08:42 32° NE
CSL-04 Rocket 4.1 20:07:20 10° S 20:12:51 65° WSW 20:18:22 10° NNW
Cosmos 1447 Rocket 4.5 20:09:43 10° S 20:15:49 59° E 20:21:53 10° NNE
Cosmos 1452 Rocket 3.5 20:10:35 10° SSW 20:15:51 86° WNW 20:21:12 10° NNE
USA 186 3.7 20:13:54 10° SSW 20:16:36 27° W 20:19:21 10° NW
ADEOS Rocket 4.2 20:15:26 25° E 20:17:17 28° ENE 20:23:04 10° N
USA 215 4.1 20:11:18 10° ENE 20:17:28 46° NNW 20:23:37 10° W
Cosmos 1766 3.2 20:17:38 56° E 20:17:38 56° E 20:21:21 10° NNE
Cosmos 1331 Rocket 3.8 20:12:41 10° SSW 20:17:47 70° ESE 20:22:56 10° NNE
Cosmos 2237 Rocket 2.1 20:16:43 10° NNW 20:22:24 87° WSW 20:25:11 31° SSE
H-2A R/B 3.3 20:23:55 36° ENE 20:23:55 36° ENE 20:27:54 10° N
MetOp-B 4.2 20:29:53 45° ESE 20:31:10 57° ENE 20:36:26 10° N
ATLAS CENTAUR R/B 4.3 20:15:09 10° SW 20:31:50 89° SE 20:39:26 10° NE
IRS-1C Rocket 4.5 20:31:12 18° S 20:35:02 62° WSW 20:40:17 10° NNW
Lacrosse 5 rocket 1.6 20:31:08 10° SW 20:34:34 51° S 20:34:34 51° S
Cosmos 968 Rocket 3.3 20:31:05 10° NNW 20:36:17 78° ENE 20:37:26 54° SE
SJ 16-02 3.1 20:33:36 10° N 20:36:14 20° NE 20:36:14 20° NE
Meteor 1-12 Rocket 4.3 20:38:18 47° SE 20:39:31 56° E 20:45:06 10° NNE
Cosmos 1726 4.0 20:38:57 10° SW 20:42:03 29° WNW 20:45:11 10° N
FALCON 9 R/B 3.9 20:22:42 10° WSW 20:42:16 39° SSW 20:45:16 31° SSE
Cosmos 1980 4.1 20:38:04 10° NW 20:43:40 58° WSW 20:46:16 31° S
ERS-1 Rocket 3.7 20:44:49 37° ENE 20:44:49 37° ENE 20:49:05 10° N
Cosmos 1513 Rocket 4.4 20:40:20 10° N 20:46:24 66° ENE 20:47:45 52° SE
Meteor 1-24 Rocket 3.9 20:40:43 10° N 20:46:32 55° ENE 20:47:16 52° E
BREEZE-M DEB (TANK) 3.0 20:43:23 10° WNW 20:49:58 80° NNE 20:50:42 62° E
Ariane Rocket 2.9 20:49:52 65° E 20:50:10 67° ENE 20:55:13 10° N
Meteor 2-15 4.4 20:44:36 10° N 20:50:45 65° ENE 20:51:48 56° SE
Landsat 5 4.1 20:47:34 10° N 20:51:19 49° WNW 20:53:41 21° SW
Meteor 2-8 Rocket 4.4 20:46:26 10° N 20:52:32 61° ENE 20:53:21 56° ESE
Meteor 2-15 Rocket 4.5 20:50:35 10° N 20:56:38 56° ENE 20:57:03 55° E
Spot 2 Rocket 3.9 21:01:35 49° NE 21:01:35 49° NE 21:05:59 10° N
Cosmos 1302 Rocket 3.8 21:02:14 81° E 21:02:14 81° E 21:07:30 10° NNE
Cosmos 2297 Rocket 2.5 20:58:04 10° SW 21:03:41 66° WNW 21:09:20 10° NNE
Resurs 01 Rocket 3.0 21:03:27 27° SW 21:05:01 35° W 21:09:06 10° NNW
Cosmos 1867 4.3 21:01:30 10° WSW 21:06:49 52° NW 21:12:10 10° NNE
Cosmos 2034 Rocket 4.1 21:01:50 10° N 21:07:51 56° ENE 21:07:51 56° ENE
Cosmos 1271 Rocket 4.2 21:11:49 32° NNW 21:11:49 32° NNW 21:14:10 10° N
Cosmos 2219 3.9 21:13:55 41° NE 21:13:55 41° NE 21:17:34 10° NNE
SPOT 3 Rocket 3.5 21:12:40 73° NNE 21:12:40 73° NNE 21:17:34 10° NNW
Meteor 2-5 Rocket 3.7 21:08:08 10° NNW 21:13:59 87° W 21:14:30 75° S
ATLAS 3B R/B 4.3 21:07:53 10° NW 21:14:12 29° NNE 21:17:41 21° ENE
Cosmos 2227 Rocket 2.2 21:13:46 10° SSW 21:19:26 78° WNW 21:25:08 10° NNE
Terra 2.7 21:21:29 41° NNE 21:21:29 41° NNE 21:24:44 10° N
CZ-4C R/B 3.1 21:13:39 10° NW 21:20:35 62° NE 21:21:59 54° E
SL-16 R/B 2.3 21:26:10 10° NNW 21:31:32 73° WNW 21:31:32 73° WNW
SPOT 5 3.8 21:41:34 44° NW 21:41:34 44° NW 21:45:11 10° NNW
ISS -0.4 21:41:25 10° WNW 21:41:38 12° WNW 21:41:38 12° WNW
USA 215 4.1 21:57:51 35° NE 21:59:44 42° N 22:05:48 10° WNW
ADEOS Rocket 3.3 22:02:22 66° W 22:02:22 66° W 22:09:09 10° NNW
Cosmos 2263 Rocket 4.3 22:13:19 17° NNE 22:13:19 17° NNE 22:14:28 10° NNE
SJ 16-02 3.7 22:11:30 10° NNW 22:13:07 21° NW 22:13:07 21° NW
ATLAS CENTAUR R/B 4.3 22:36:29 10° W 22:47:34 45° NNW 22:49:44 35° NNE
ATLAS 3B R/B 3.4 22:58:52 10° NW 23:04:56 55° N 23:04:56 55° N
CZ-4C R/B 4.0 23:02:17 10° NW 23:07:09 37° W 23:07:09 37° W
Cosmos 2344 4.0 23:10:41 10° NW 23:18:50 81° N 23:18:50 81° N
USA 215 4.5 23:45:10 35° NW 23:45:10 35° NW 23:48:44 10° NW
Cosmos 2263 Rocket 4.4 23:54:56 21° NNW 23:54:56 21° NNW 23:57:50 10° N
